Weather History for Sparta, IL

Change the Weather History Date:

Monday, February 18, 2013

  Actual Average (KBLV) Record (KBLV)
Temperature  
Mean Temperature 45 °F -  
Max Temperature 53 °F 47 °F 69 °F (1971)
Min Temperature 37 °F 28 °F -9 °F (1993)
Degree Days  
Heating Degree Days 20    
Moisture  
Dew Point 40 °F    
Average Humidity 80    
Maximum Humidity 100    
Minimum Humidity 57    
Precipitation  
Precipitation 0.32 in - - ()
Sea Level Pressure  
Sea Level Pressure 29.81 in    
Wind  
Wind Speed 15 mph (South)    
Max Wind Speed 28 mph    
Max Gust Speed 36 mph    
Visibility 9 miles    
Events Rain , Thunderstorm    
Averages and records for this station are not official NWS values.
T = Trace of Precipitation, MM = Missing Value Source: NWS Daily Summary

Daily Weather History Graph

Daily Weather History Graph

Search for Another Location

Airport:

Trip Planner

Search our weather history database for the weather conditions in past years. The results will help you decide how hot, cold, wet, or windy it might be!

Date:

Astronomy

Feb. 18, 2013 Rise Set
Actual Time 6:44 AM CST 5:40 PM CST
Civil Twilight 6:18 AM CST 6:07 PM CST
Nautical Twilight 5:47 AM CST 6:38 PM CST
Astronomical Twilight 5:16 AM CST 7:09 PM CST
Moon 11:29 AM CST (2/18) 1:22 AM CST (2/18)
Length of Visible Light 11h 49m
Length of Day
10h 55m
First Quarter, 58% of the Moon is Illuminated
Feb 18
First Quarter
Feb 25
Full
Mar 4
Last Quarter
Mar 11
New
Mar 19
First Quarter

Hourly Weather History & Observations

Time (CST) Temp. Windchill Dew Point Humidity Pressure Visibility Wind Dir Wind Speed Gust Speed Precip Events Conditions
12:15 AM 39.2 °F 33.6 °F 26.6 °F 61% 29.96 in 10.0 mi SSE 8.1 mph - N/A   Clear
12:35 AM 39.2 °F 33.6 °F 26.6 °F 61% 29.95 in 10.0 mi SSE 8.1 mph - N/A   Clear
12:55 AM 39.2 °F 33.0 °F 26.6 °F 61% 29.95 in 10.0 mi SSE 9.2 mph - N/A   Clear
1:15 AM 42.8 °F 37.5 °F 28.4 °F 57% 29.94 in 10.0 mi SSE 9.2 mph - N/A   Clear
1:35 AM 42.8 °F 34.8 °F 28.4 °F 57% 29.93 in 10.0 mi South 17.3 mph 23.0 mph N/A   Clear
1:55 AM 42.8 °F 36.2 °F 28.4 °F 57% 29.93 in 10.0 mi South 12.7 mph 19.6 mph N/A   Clear
2:15 AM 42.8 °F 36.2 °F 28.4 °F 57% 29.93 in 10.0 mi South 12.7 mph 20.7 mph N/A   Clear
2:35 AM 42.8 °F 36.2 °F 28.4 °F 57% 29.93 in 10.0 mi South 12.7 mph 18.4 mph N/A   Clear
2:55 AM 42.8 °F 35.8 °F 30.2 °F 61% 29.92 in 10.0 mi South 13.8 mph 18.4 mph N/A   Clear
3:15 AM 42.8 °F 35.4 °F 30.2 °F 61% 29.91 in 10.0 mi South 15.0 mph - N/A   Clear
3:35 AM 42.8 °F 34.8 °F 30.2 °F 61% 29.91 in 10.0 mi South 17.3 mph 20.7 mph N/A   Clear
3:55 AM 42.8 °F 35.4 °F 32.0 °F 66% 29.91 in 10.0 mi South 15.0 mph 21.9 mph N/A   Clear
4:15 AM 42.8 °F 35.4 °F 32.0 °F 66% 29.90 in 10.0 mi South 15.0 mph 23.0 mph N/A   Clear
4:35 AM 42.8 °F 36.2 °F 33.8 °F 70% 29.90 in 10.0 mi South 12.7 mph - N/A   Clear
4:55 AM 42.8 °F 35.4 °F 33.8 °F 70% 29.90 in 10.0 mi South 15.0 mph 20.7 mph N/A   Clear
5:15 AM 42.8 °F 36.2 °F 35.6 °F 76% 29.89 in 10.0 mi South 12.7 mph 18.4 mph N/A   Clear
5:35 AM 44.6 °F 37.2 °F 35.6 °F 71% 29.89 in 10.0 mi South 17.3 mph 25.3 mph N/A   Clear
5:55 AM 44.6 °F 37.2 °F 37.4 °F 76% 29.89 in 10.0 mi South 17.3 mph 24.2 mph N/A   Clear
6:15 AM 44.6 °F 37.2 °F 37.4 °F 76% 29.88 in 10.0 mi South 17.3 mph 23.0 mph N/A   Clear
6:35 AM 44.6 °F 38.4 °F 37.4 °F 76% 29.88 in 10.0 mi South 12.7 mph 24.2 mph N/A   Clear
6:55 AM 44.6 °F 38.1 °F 37.4 °F 76% 29.88 in 10.0 mi South 13.8 mph 20.7 mph N/A   Clear
7:15 AM 44.6 °F 37.8 °F 37.4 °F 76% 29.88 in 10.0 mi South 15.0 mph 20.7 mph N/A   Clear
7:35 AM 44.6 °F 38.1 °F 39.2 °F 81% 29.88 in 10.0 mi South 13.8 mph 18.4 mph N/A   Clear
7:55 AM 44.6 °F 38.4 °F 39.2 °F 81% 29.87 in 10.0 mi South 12.7 mph 18.4 mph N/A   Clear
8:15 AM 46.4 °F 40.1 °F 41.0 °F 81% 29.87 in 10.0 mi South 15.0 mph 21.9 mph N/A   Clear
8:35 AM 46.4 °F 39.2 °F 41.0 °F 81% 29.87 in 10.0 mi South 18.4 mph 26.5 mph N/A   Clear
8:55 AM 48.2 °F - 42.8 °F 82% 29.86 in 10.0 mi South 17.3 mph 26.5 mph N/A   Clear
9:15 AM 48.2 °F - 42.8 °F 82% 29.86 in 10.0 mi South 19.6 mph 28.8 mph N/A   Mostly Cloudy
9:35 AM 50.0 °F - 44.6 °F 82% 29.86 in 10.0 mi South 18.4 mph 31.1 mph N/A   Mostly Cloudy
9:55 AM 51.8 °F - 44.6 °F 76% 29.85 in 10.0 mi South 21.9 mph 34.5 mph N/A   Mostly Cloudy
10:15 AM 53.6 °F - 44.6 °F 72% 29.84 in 10.0 mi South 25.3 mph 31.1 mph N/A   Mostly Cloudy
10:35 AM 53.6 °F - 44.6 °F 72% 29.85 in 10.0 mi South 16.1 mph 29.9 mph N/A   Mostly Cloudy
10:55 AM 51.8 °F - 44.6 °F 76% 29.85 in 10.0 mi South 16.1 mph 21.9 mph N/A   Overcast
11:15 AM 51.8 °F - 44.6 °F 76% 29.85 in 10.0 mi South 12.7 mph 23.0 mph N/A   Overcast
11:35 AM 51.8 °F - 44.6 °F 76% 29.84 in 10.0 mi South 13.8 mph 21.9 mph N/A   Overcast
11:55 AM 53.6 °F - 44.6 °F 72% 29.83 in 10.0 mi South 17.3 mph 27.6 mph N/A   Overcast
12:15 PM 51.8 °F - 44.6 °F 76% 29.81 in 10.0 mi South 18.4 mph 25.3 mph N/A   Overcast
12:35 PM 51.8 °F - 46.4 °F 82% 29.81 in 7.0 mi SSW 17.3 mph 27.6 mph N/A Rain Rain
12:55 PM 50.0 °F - 46.4 °F 87% 29.79 in 10.0 mi South 13.8 mph 24.2 mph N/A   Overcast
1:15 PM 50.0 °F - 46.4 °F 87% 29.77 in 5.0 mi South 24.2 mph 34.5 mph 0.05 in Rain Rain
1:35 PM 48.2 °F - 46.4 °F 93% 29.76 in 7.0 mi South 19.6 mph 28.8 mph 0.15 in Rain Rain
1:55 PM 48.2 °F - 46.4 °F 93% 29.75 in 10.0 mi South 18.4 mph 29.9 mph 0.15 in   Overcast
2:15 PM 48.2 °F - 46.4 °F 93% 29.74 in 10.0 mi South 20.7 mph 27.6 mph N/A   Overcast
2:35 PM 48.2 °F - 46.4 °F 93% 29.73 in 5.0 mi South 17.3 mph 28.8 mph N/A Rain Light Rain
2:55 PM 48.2 °F - 46.4 °F 93% 29.71 in 7.0 mi South 20.7 mph 31.1 mph N/A   Overcast
3:15 PM 50.0 °F - 46.4 °F 87% 29.70 in 7.0 mi South 18.4 mph 26.5 mph N/A   Overcast
3:35 PM 50.0 °F - 46.4 °F 87% 29.69 in 5.0 mi South 18.4 mph 26.5 mph N/A   Overcast
3:55 PM 50.0 °F - 48.2 °F 94% 29.67 in 7.0 mi South 15.0 mph 25.3 mph N/A Thunderstorm Overcast
4:15 PM 50.0 °F - 48.2 °F 94% 29.66 in 5.0 mi South 19.6 mph 29.9 mph N/A Thunderstorm Overcast
4:35 PM 50.0 °F - 48.2 °F 94% 29.65 in 7.0 mi South 19.6 mph 27.6 mph N/A   Drizzle
4:55 PM 50.0 °F - 48.2 °F 94% 29.65 in 7.0 mi South 16.1 mph 26.5 mph 0.01 in Rain , Thunderstorm Light Thunderstorms and Rain
5:15 PM 50.0 °F - 48.2 °F 94% 29.63 in 4.0 mi SSE 20.7 mph 28.8 mph 0.02 in Rain Rain
5:35 PM 48.2 °F - 48.2 °F 100% 29.62 in 7.0 mi SSE 24.2 mph 31.1 mph 0.03 in Rain Rain
5:55 PM 50.0 °F - 48.2 °F 94% 29.63 in 10.0 mi South 17.3 mph 26.5 mph 0.03 in Rain Light Rain
6:15 PM 50.0 °F - 48.2 °F 94% 29.65 in 10.0 mi South 17.3 mph 26.5 mph 0.06 in Rain Rain
6:35 PM 50.0 °F - 48.2 °F 94% 29.63 in 10.0 mi South 19.6 mph 26.5 mph 0.09 in Rain Light Rain
6:55 PM 50.0 °F - 48.2 °F 94% 29.61 in 10.0 mi South 16.1 mph 23.0 mph 0.10 in Rain Light Rain
7:15 PM 50.0 °F - 48.2 °F 94% 29.61 in 10.0 mi South 15.0 mph - N/A Rain Light Rain
7:35 PM 50.0 °F - 48.2 °F 94% 29.64 in 10.0 mi SSW 12.7 mph 19.6 mph N/A Rain Light Rain
7:55 PM 50.0 °F - 48.2 °F 94% 29.66 in 10.0 mi WSW 13.8 mph 19.6 mph 0.02 in Rain Light Rain
8:15 PM 48.2 °F - 46.4 °F 93% 29.68 in 10.0 mi WNW 27.6 mph 35.7 mph 0.01 in   Drizzle
8:35 PM 42.8 °F 34.3 °F 41.0 °F 93% 29.71 in 10.0 mi WNW 19.6 mph 31.1 mph 0.01 in   Light Drizzle
8:55 PM 42.8 °F 34.8 °F 39.2 °F 87% 29.75 in 10.0 mi WNW 17.3 mph 29.9 mph 0.01 in   Overcast
9:15 PM 41.0 °F 33.5 °F 37.4 °F 87% 29.78 in 10.0 mi WNW 13.8 mph 26.5 mph N/A   Overcast
9:35 PM 41.0 °F 32.8 °F 37.4 °F 87% 29.80 in 10.0 mi WNW 16.1 mph 26.5 mph N/A   Overcast
9:55 PM 41.0 °F 33.5 °F 37.4 °F 87% 29.80 in 10.0 mi WNW 13.8 mph 20.7 mph N/A   Overcast
10:15 PM 41.0 °F 33.5 °F 37.4 °F 87% 29.81 in 10.0 mi WNW 13.8 mph 21.9 mph N/A   Overcast
10:35 PM 41.0 °F 33.5 °F 37.4 °F 87% 29.83 in 10.0 mi WNW 13.8 mph 19.6 mph N/A   Overcast
10:55 PM 39.2 °F 30.2 °F 35.6 °F 87% 29.85 in 10.0 mi WNW 17.3 mph 29.9 mph N/A   Overcast
11:15 PM 39.2 °F 30.5 °F 33.8 °F 81% 29.87 in 10.0 mi WNW 16.1 mph 27.6 mph N/A   Overcast
11:35 PM 37.4 °F 29.3 °F 33.8 °F 87% 29.88 in 10.0 mi WNW 12.7 mph 19.6 mph N/A   Overcast
11:55 PM 37.4 °F 27.8 °F 33.8 °F 87% 29.90 in 10.0 mi West 17.3 mph 24.2 mph N/A   Overcast